Date,TemperatureHighF,TemperatureAvgF,TemperatureLowF,DewpointHighF,DewpointAvgF,DewpointLowF,HumidityHigh,HumidityAvg,HumidityLow,PressureMaxIn,PressureMinIn,WindSpeedMaxMPH,WindSpeedAvgMPH,GustSpeedMaxMPH,PrecipitationSumIn
2013-3-1,68.2,59.5,55.2,51.0,46.2,40.1,76,62,40,30.00,29.91,16,3,16,0.00
2013-3-2,58.7,53.7,46.4,43.2,38.3,34.2,68,56,43,30.05,29.95,23,4,23,0.00
2013-3-3,59.0,48.3,39.7,39.2,34.7,30.5,77,60,43,30.18,29.98,24,5,25,0.00
2013-3-4,58.3,49.3,37.2,46.5,36.0,27.4,81,62,36,30.26,30.14,16,2,16,0.00
2013-3-5,76.8,61.0,45.3,60.4,50.2,39.8,90,69,43,30.21,30.05,15,2,15,0.00
2013-3-6,71.1,61.7,50.3,60.5,46.1,33.8,91,61,28,30.15,29.96,27,6,27,0.00
2013-3-7,62.6,54.1,44.2,51.1,43.3,32.9,81,67,59,30.22,30.10,13,3,13,0.00
2013-3-8,65.6,57.8,46.3,53.3,47.8,42.7,94,71,51,30.24,30.15,15,2,15,0.00
2013-3-9,69.6,61.9,50.9,56.7,51.9,46.1,90,71,56,30.25,30.13,12,2,12,0.00
2013-3-10,74.0,67.9,60.4,63.7,57.5,53.7,88,70,58,30.20,30.12,13,3,19,0.00
2013-3-11,75.6,69.6,61.7,65.6,59.8,55.5,84,71,58,30.15,29.97,22,4,22,0.00
2013-3-12,76.3,70.4,63.9,69.2,64.5,58.6,89,82,71,30.03,29.91,18,4,18,0.00
2013-3-13,67.5,60.9,52.9,59.0,52.2,45.8,90,74,49,30.17,30.01,19,3,19,0.01
2013-3-14,61.9,55.5,48.3,48.3,44.7,37.9,84,68,49,30.25,30.13,19,4,19,0.00
2013-3-15,65.0,56.3,45.4,51.3,45.3,39.3,81,67,53,30.30,30.18,13,2,13,0.00
2013-3-16,76.7,61.7,47.1,57.6,49.6,41.8,93,67,37,30.23,30.08,17,2,17,0.00
2013-3-17,75.1,65.5,52.6,61.5,55.6,47.0,87,71,56,30.19,30.04,19,2,19,0.00
2013-3-18,81.0,72.6,65.6,67.5,63.3,59.5,91,74,59,30.10,29.90,18,3,20,0.01
2013-3-19,79.3,70.3,64.5,67.9,65.1,62.1,96,84,67,30.04,29.91,11,1,15,0.01
2013-3-20,80.4,71.3,65.2,69.9,64.3,59.7,97,80,56,29.99,29.80,18,3,19,0.01
2013-3-21,66.9,61.4,54.8,60.4,48.7,38.2,87,65,39,29.98,29.84,17,3,17,0.01
2013-3-22,74.3,62.3,47.4,72.8,53.2,41.4,100,73,55,30.04,29.92,16,2,16,0.03
2013-3-23,87.8,76.5,67.8,74.7,69.0,25.7,97,79,58,30.02,29.78,20,3,20,0.10
2013-3-24,88.9,75.3,69.8,73.4,68.6,64.6,93,81,54,29.91,29.66,31,5,31,0.19
2013-3-25,76.7,69.6,56.8,70.1,54.6,38.4,94,64,30,30.04,29.74,18,4,19,0.01
2013-3-26,65.9,56.1,48.6,42.7,35.2,28.6,65,46,31,30.24,30.02,24,5,24,0.00
2013-3-27,59.7,51.9,43.2,44.6,38.4,31.9,73,60,46,30.31,30.20,15,3,17,0.00
2013-3-28,64.1,55.5,43.9,48.5,43.0,37.8,85,65,40,30.32,30.21,15,2,15,0.00
2013-3-29,69.3,60.6,50.0,59.9,48.4,44.3,88,66,50,30.35,30.24,16,2,16,0.00
2013-3-30,74.7,64.3,51.9,57.3,52.3,46.4,90,66,51,30.29,30.17,21,3,21,0.00
2013-3-31,80.6,68.8,56.7,66.4,59.1,50.5,88,72,50,30.22,30.04,22,4,22,0.00